QPF
0.00 0.00 0.00 0.00 0.00 0.00 0.00 0.00 0.00 0.00 0.00 0.00 0.00 0.00 0.00 0.00 0.00 0.00 0.00 0.00 0.00 0.00 0.00 0.00 0.00 0.00 0.00 0.00 0.00 0.00 0.00 0.00 0.00 0.00 0.00 0.00 0.00 0.00 0.00 0.00 0.00 0.00 0.00
0.00 0.00 0.00 0.00 0.00 0.00 0.00 0.00 0.00 0.00 0.00 0.00 0.00 0.00 0.00 0.00 0.00 0.00 0.00 0.00 0.00 0.00 0.00 0.00 0.00 0.00 0.00 0.00 0.00 0.00 0.00 0.00 0.00 0.00 0.00 0.00 0.00 0.00 0.00 0.00 0.00 0.00 0.00
0.00 0.00 0.00 0.00 0.00 0.00 0.00 0.00 0.00 0.00 0.00 0.00 0.00 0.00 0.00 0.00 0.00 0.00 0.00 0.00 0.00 0.00 0.00 0.00 0.00 0.00 0.00 0.00 0.00 0.00 0.00 0.00 0.00 0.00 0.00 0.00 0.00 0.00 0.00 0.00 0.00 0.00 0.00
0.00 0.00 0.00 0.00 0.00 0.00 0.00 0.00 0.00 0.00 0.00 0.00 0.00 0.00 0.00 0.00 0.00 0.00 0.00 0.00 0.00 0.00 0.00 0.00 0.00 0.00 0.00 0.00 0.00 0.00 0.00 0.00 0.00 0.00 0.00 0.00 0.00 0.00 0.00 0.00 0.00 0.00 0.00
0.00 0.00 0.00 0.00 0.00 0.00 0.00 0.00 0.00 0.00 0.00 0.00 0.00 0.00 0.00 0.00 0.00 0.00 0.00 0.00 0.00 0.00 0.00 0.00 0.00 0.00 0.00 0.00 0.00 0.00 0.00 0.00 0.00 0.00 0.00 0.00 0.00 0.00 0.00 0.00 0.00 0.00 0.00
0.00 0.00 0.00 0.00 0.00 0.00 0.00 0.00 0.00 0.00 0.00 0.00 0.00 0.00 0.00 0.00 0.00 0.00 0.00 0.00 0.00 0.00 0.00 0.00 0.00 0.00 0.00 0.00 0.00 0.00 0.00 0.00 0.00 0.00 0.00 0.00 0.00 0.01 0.01 0.01 0.01 0.01 0.00
0.00 0.00 0.00 0.00 0.00 0.00 0.00 0.00 0.00 0.00 0.00 0.00 0.00 0.00 0.00 0.00 0.00 0.00 0.00 0.00 0.00 0.00 0.00 0.00 0.00 0.00 0.00 0.00 0.00 0.00 0.00 0.00 0.00 0.00 0.00 0.00 0.00 0.00 0.00 0.00 0.00 0.01 0.00
0.00 0.00 0.00 0.00 0.00 0.00 0.00 0.00 0.00 0.00 0.00 0.00 0.00 0.00 0.00 0.00 0.00 0.00 0.00 0.00 0.00 0.00 0.00 0.00 0.00 0.00 0.00 0.00 0.00 0.00 0.00 0.00 0.00 0.00 0.01 0.00 0.00 0.00 0.00 0.00 0.01 0.01 0.00
0.00 0.00 0.00 0.00 0.00 0.00 0.00 0.00 0.00 0.00 0.00 0.00 0.00 0.00 0.00 0.00 0.00 0.00 0.00 0.00 0.00 0.00 0.00 0.00 0.00 0.00 0.00 0.00 0.00 0.00 0.00 0.00 0.00 0.00 0.01 0.01 0.02 0.02 0.04 0.06 0.01 0.01 0.00
0.00 0.00 0.00 0.00 0.00 0.00 0.00 0.00 0.00 0.00 0.00 0.00 0.00 0.00 0.00 0.00 0.00 0.00 0.00 0.00 0.00 0.00 0.00 0.00 0.00 0.00 0.00 0.00 0.01 0.01 0.00 0.00 0.00 0.00 0.00 0.00 0.00 0.00 0.01 0.02 0.01 0.01 0.01
0.00 0.00 0.00 0.00 0.00 0.00 0.00 0.00 0.00 0.00 0.00 0.00 0.00 0.00 0.00 0.00 0.00 0.00 0.00 0.00 0.00 0.00 0.00 0.00 0.00 0.00 0.01 0.01 0.02 0.01 0.01 0.01 0.00 0.00 0.00 0.00 0.00 0.00 0.00 0.00 0.00 0.00 0.00
0.00 0.00 0.00 0.00 0.00 0.00 0.00 0.00 0.00 0.00 0.00 0.00 0.00 0.00 0.00 0.00 0.00 0.00 0.00 0.00 0.00 0.00 0.00 0.00 0.00 0.01 0.01 0.01 0.01 0.00 0.01 0.01 0.00 0.00 0.00 0.00 0.00 0.00 0.00 0.00 0.00 0.00 0.00
0.00 0.00 0.00 0.00 0.00 0.00 0.00 0.00 0.00 0.00 0.00 0.00 0.00 0.00 0.00 0.00 0.00 0.00 0.00 0.00 0.00 0.00 0.00 0.00 0.01 0.00 0.00 0.00 0.00 0.00 0.00 0.00 0.00 0.00 0.00 0.00 0.00 0.00 0.00 0.00 0.00 0.00 0.00
0.00 0.00 0.00 0.00 0.00 0.00 0.00 0.00 0.00 0.00 0.00 0.00 0.00 0.00 0.00 0.00 0.00 0.00 0.00 0.00 0.00 0.00 0.00 0.00 0.00 0.00 0.00 0.00 0.00 0.00 0.00 0.00 0.00 0.00 0.00 0.00 0.00 0.00 0.00 0.00 0.00 0.00 0.00
0.00 0.00 0.00 0.00 0.00 0.00 0.00 0.00 0.00 0.00 0.00 0.00 0.00 0.00 0.00 0.00 0.00 0.00 0.00 0.00 0.00 0.00 0.00 0.00 0.00 0.00 0.00 0.00 0.00 0.00 0.00 0.00 0.00 0.00 0.00 0.00 0.00 0.00 0.00 0.00 0.00 0.00 0.00
0.00 0.00 0.00 0.00 0.00 0.00 0.00 0.00 0.00 0.00 0.00 0.00 0.00 0.00 0.00 0.00 0.00 0.00 0.00 0.00 0.00 0.00 0.00 0.00 0.00 0.00 0.00 0.00 0.00 0.00 0.00 0.00 0.00 0.00 0.00 0.00 0.00 0.00 0.00 0.00 0.00 0.00 0.00
0.00 0.00 0.00 0.00 0.00 0.00 0.00 0.00 0.00 0.00 0.00 0.00 0.00 0.00 0.00 0.00 0.00 0.00 0.00 0.00 0.00 0.00 0.00 0.00 0.00 0.00 0.00 0.00 0.00 0.00 0.00 0.00 0.00 0.00 0.00 0.00 0.00 0.00 0.00 0.00 0.00 0.00 0.00
0.00 0.00 0.00 0.00 0.00 0.00 0.00 0.00 0.00 0.00 0.00 0.00 0.00 0.00 0.00 0.00 0.00 0.00 0.00 0.00 0.00 0.00 0.00 0.00 0.00 0.00 0.00 0.00 0.00 0.00 0.00 0.00 0.00 0.00 0.00 0.00 0.00 0.00 0.00 0.00 0.00 0.00 0.00
0.00 0.00 0.00 0.00 0.00 0.00 0.00 0.00 0.00 0.00 0.00 0.00 0.00 0.00 0.00 0.00 0.00 0.00 0.00 0.00 0.00 0.00 0.00 0.00 0.00 0.00 0.00 0.00 0.00 0.00 0.00 0.00 0.00 0.00 0.00 0.00 0.00 0.00 0.00 0.00 0.00 0.00 0.00
0.00 0.00 0.00 0.00 0.00 0.00 0.00 0.00 0.00 0.00 0.00 0.00 0.00 0.00 0.00 0.00 0.00 0.00 0.00 0.00 0.00 0.00 0.00 0.00 0.00 0.00 0.00 0.00 0.00 0.00 0.00 0.00 0.00 0.00 0.00 0.00 0.00 0.00 0.00 0.00 0.00 0.00 0.00
0.00 0.00 0.00 0.00 0.00 0.00 0.00 0.00 0.00 0.00 0.00 0.00 0.00 0.00 0.00 0.00 0.00 0.00 0.00 0.00 0.00 0.00 0.00 0.00 0.00 0.00 0.00 0.00 0.00 0.00 0.00 0.00 0.00 0.00 0.00 0.00 0.00 0.00 0.00 0.00 0.00 0.00 0.00
0.00 0.00 0.00 0.00 0.00 0.00 0.00 0.00 0.00 0.00 0.00 0.00 0.00 0.00 0.00 0.00 0.00 0.00 0.00 0.00 0.00 0.00 0.00 0.00 0.00 0.00 0.00 0.00 0.00 0.00 0.00 0.00 0.00 0.00 0.00 0.00 0.00 0.00 0.00 0.00 0.00 0.00 0.00
0.00 0.00 0.00 0.00 0.00 0.00 0.00 0.00 0.00 0.00 0.00 0.00 0.00 0.00 0.00 0.00 0.00 0.00 0.00 0.00 0.00 0.00 0.00 0.00 0.00 0.00 0.00 0.00 0.00 0.00 0.00 0.00 0.00 0.00 0.00 0.00 0.00 0.00 0.00 0.00 0.00 0.00 0.00
0.00 0.00 0.00 0.00 0.00 0.00 0.00 0.00 0.00 0.00 0.00 0.00 0.00 0.00 0.00 0.00 0.00 0.00 0.00 0.00 0.00 0.00 0.00 0.00 0.00 0.00 0.00 0.00 0.00 0.00 0.00 0.00 0.00 0.00 0.00 0.00 0.00 0.00 0.00 0.00 0.00 0.00 0.00
0.00 0.00 0.00 0.00 0.00 0.00 0.00 0.00 0.00 0.00 0.00 0.00 0.00 0.00 0.00 0.00 0.00 0.00 0.00 0.00 0.00 0.00 0.00 0.00 0.00 0.00 0.00 0.00 0.00 0.00 0.00 0.00 0.00 0.00 0.00 0.00 0.00 0.00 0.00 0.00 0.00 0.00 0.00
0.00 0.00 0.00 0.00 0.00 0.00 0.00 0.00 0.00 0.00 0.00 0.00 0.00 0.00 0.00 0.00 0.00 0.00 0.00 0.00 0.00 0.00 0.00 0.00 0.00 0.00 0.00 0.00 0.00 0.00 0.01 0.00 0.00 0.00 0.00 0.00 0.00 0.00 0.00 0.00 0.00 0.00 0.00
MSLP
1015.12 1015.76 1016.42 1017.06 1017.40 1018.06 1018.49 1019.01 1019.33 1019.74 1020.10 1020.44 1020.85 1021.14 1021.41 1021.62 1021.71 1022.00 1022.13 1022.15 1022.18 1022.29 1022.28 1022.29 1022.22 1022.05 1021.95 1021.73 1021.60 1021.53 1021.58 1021.64 1021.24 1019.32 1019.60 1019.24 1018.97 1018.67 1018.25 1017.87 1017.64 1017.52 1017.39
1015.42 1016.19 1016.87 1017.23 1017.75 1018.31 1018.73 1019.16 1019.58 1019.89 1020.11 1020.54 1020.87 1021.11 1021.36 1021.66 1021.85 1021.95 1022.04 1022.07 1022.22 1022.29 1022.20 1022.14 1022.00 1021.74 1021.55 1021.40 1021.30 1021.17 1020.99 1020.75 1020.81 1019.91 1018.96 1018.95 1018.71 1018.40 1017.94 1017.77 1017.30 1017.01 1016.89
1015.86 1016.45 1017.11 1017.62 1018.07 1018.56 1018.98 1019.40 1019.73 1020.03 1020.38 1020.64 1020.92 1021.17 1021.46 1021.69 1021.82 1021.95 1022.00 1022.07 1022.15 1022.14 1022.04 1021.92 1021.67 1021.42 1021.30 1021.03 1020.86 1020.81 1020.63 1020.42 1020.35 1020.02 1018.82 1018.54 1018.12 1017.87 1017.52 1017.19 1016.90 1016.71 1016.39
1016.17 1016.92 1017.49 1017.92 1018.30 1018.76 1019.20 1019.62 1019.95 1020.26 1020.55 1020.95 1021.14 1021.38 1021.59 1021.72 1021.84 1021.94 1022.08 1022.16 1022.18 1022.10 1021.92 1021.66 1021.41 1021.18 1020.92 1020.80 1020.68 1020.62 1020.26 1020.20 1020.01 1019.75 1019.16 1018.41 1018.07 1017.50 1017.29 1016.99 1016.55 1016.16 1015.92
1016.87 1017.28 1017.78 1018.10 1018.53 1018.99 1019.51 1019.84 1020.30 1020.60 1020.92 1021.19 1021.40 1021.58 1021.57 1021.69 1021.81 1021.99 1022.15 1022.31 1022.33 1022.14 1021.89 1021.58 1021.22 1020.95 1020.72 1020.56 1020.26 1020.17 1020.11 1019.82 1019.52 1019.17 1018.88 1018.45 1017.77 1017.35 1017.16 1016.53 1016.25 1015.96 1015.62
1017.20 1017.69 1018.01 1018.54 1018.96 1019.45 1019.84 1020.28 1020.72 1020.87 1021.28 1021.50 1021.67 1021.68 1021.72 1021.77 1021.90 1022.06 1022.19 1022.41 1022.43 1022.24 1021.90 1021.44 1021.07 1020.78 1020.48 1020.27 1020.08 1019.87 1019.69 1019.45 1019.17 1018.86 1018.35 1017.98 1017.17 1016.96 1016.63 1016.35 1016.02 1015.82 1015.48
1017.65 1018.12 1018.56 1019.01 1019.47 1019.91 1020.22 1020.62 1020.90 1021.33 1021.64 1021.80 1021.80 1021.86 1021.95 1021.98 1021.91 1022.05 1022.19 1022.38 1022.37 1022.08 1021.72 1021.27 1020.88 1020.50 1020.14 1019.82 1019.60 1019.41 1019.26 1019.10 1018.67 1018.17 1017.61 1017.21 1016.64 1016.21 1016.00 1015.67 1015.53 1015.39 1014.98
1018.12 1018.60 1019.02 1019.43 1020.00 1020.27 1020.58 1021.02 1021.40 1021.76 1021.91 1021.92 1022.10 1022.17 1022.20 1022.18 1022.09 1022.17 1022.27 1022.31 1022.18 1021.89 1021.56 1021.15 1020.74 1020.29 1019.88 1019.42 1018.94 1018.95 1018.79 1018.44 1018.01 1017.52 1017.02 1016.42 1015.95 1015.40 1015.18 1014.98 1014.80 1014.67 1014.33
1018.73 1019.13 1019.50 1019.86 1020.39 1020.70 1021.26 1021.69 1021.90 1022.01 1022.22 1022.39 1022.36 1022.42 1022.52 1022.42 1022.22 1022.03 1022.11 1022.24 1022.15 1021.88 1021.49 1021.14 1020.78 1020.35 1019.75 1019.26 1018.70 1018.41 1018.07 1017.73 1017.22 1016.68 1016.15 1015.57 1015.28 1014.76 1014.38 1014.13 1014.14 1014.16 1013.71
1019.25 1019.60 1019.85 1020.18 1020.68 1021.36 1021.72 1021.89 1022.07 1022.32 1022.43 1022.41 1022.50 1022.52 1022.46 1022.24 1021.93 1021.79 1021.92 1022.01 1022.01 1021.73 1021.30 1020.95 1020.62 1020.06 1019.36 1018.91 1018.50 1018.14 1017.60 1017.27 1016.75 1016.20 1015.80 1015.40 1015.03 1014.94 1014.46 1014.22 1013.99 1013.77 1013.11
1019.66 1019.98 1020.38 1020.83 1021.32 1021.58 1021.85 1022.18 1022.35 1022.33 1022.51 1022.74 1022.85 1022.69 1022.45 1022.17 1021.89 1021.72 1021.75 1021.73 1021.65 1021.14 1020.87 1020.66 1020.29 1019.81 1019.11 1018.72 1018.17 1017.82 1017.47 1016.73 1016.45 1016.08 1015.85 1015.47 1014.95 1014.51 1014.41 1014.12 1014.00 1013.89 1013.63
1020.12 1020.61 1021.07 1021.36 1021.61 1021.99 1022.17 1022.23 1022.38 1022.68 1023.05 1023.17 1023.10 1022.91 1022.51 1022.26 1022.08 1022.03 1021.83 1021.65 1021.44 1021.18 1020.81 1020.37 1019.91 1019.42 1018.89 1018.41 1017.92 1017.53 1017.16 1016.85 1016.59 1016.43 1016.00 1015.54 1015.23 1014.82 1014.41 1014.13 1013.94 1013.65 1013.44
1020.60 1021.11 1021.43 1021.79 1022.04 1022.15 1022.39 1022.76 1023.02 1023.09 1023.23 1023.30 1023.23 1023.10 1022.96 1022.71 1022.42 1022.03 1021.76 1021.55 1021.41 1021.03 1020.75 1020.17 1019.64 1019.27 1018.74 1018.45 1018.12 1017.68 1017.33 1017.07 1016.77 1016.40 1015.97 1015.59 1015.19 1014.74 1014.35 1014.03 1013.66 1013.37 1013.11
1020.95 1021.47 1021.74 1022.02 1022.17 1022.40 1022.62 1022.81 1023.09 1023.22 1023.24 1023.27 1023.27 1023.27 1023.13 1022.87 1022.50 1022.08 1021.72 1021.45 1021.13 1020.79 1020.44 1020.12 1019.69 1019.29 1018.94 1018.60 1018.19 1017.84 1017.49 1017.09 1016.61 1016.34 1015.96 1015.55 1015.02 1014.65 1014.34 1013.93 1013.67 1013.28 1013.01
1021.24 1021.61 1021.92 1022.19 1022.48 1022.73 1022.79 1022.81 1022.78 1022.71 1022.80 1022.95 1023.07 1023.03 1022.97 1022.73 1022.31 1021.92 1021.75 1021.36 1020.93 1020.59 1020.02 1019.95 1019.66 1019.42 1019.03 1018.69 1018.29 1017.93 1017.49 1017.02 1016.65 1016.29 1015.97 1015.52 1015.04 1014.57 1014.15 1013.73 1013.46 1013.11 1012.81
1021.41 1021.85 1022.21 1022.52 1022.79 1022.91 1022.90 1022.79 1022.39 1022.32 1022.41 1022.39 1022.37 1022.38 1022.39 1022.31 1022.02 1021.72 1021.57 1021.18 1020.73 1020.26 1020.25 1020.20 1019.89 1019.56 1019.18 1018.84 1018.44 1017.91 1017.42 1016.96 1016.56 1016.15 1015.79 1015.42 1014.98 1014.50 1014.01 1013.54 1013.19 1012.88 1012.40
1021.67 1022.10 1022.42 1022.67 1022.79 1022.89 1022.95 1022.97 1022.99 1022.67 1022.47 1022.40 1022.44 1022.38 1022.24 1022.10 1021.91 1021.69 1021.24 1020.93 1020.66 1020.48 1020.57 1020.33 1020.03 1019.62 1019.26 1018.92 1018.46 1017.93 1017.40 1016.90 1016.43 1016.03 1015.65 1015.21 1014.78 1014.27 1013.79 1013.35 1012.89 1012.45 1011.88
1021.88 1022.08 1022.48 1022.67 1022.82 1022.91 1023.02 1023.04 1023.04 1023.02 1022.96 1022.72 1022.52 1022.48 1022.26 1022.10 1021.81 1021.55 1021.09 1020.97 1020.95 1020.64 1020.54 1020.35 1020.01 1019.62 1019.25 1018.81 1018.31 1017.81 1017.25 1016.71 1016.24 1015.76 1015.34 1014.93 1014.48 1014.03 1013.47 1013.03 1012.58 1012.12 1011.57
1022.01 1022.29 1022.41 1022.56 1022.64 1022.73 1022.87 1023.02 1023.07 1023.06 1022.98 1022.81 1022.57 1022.52 1022.47 1022.20 1021.74 1021.54 1021.24 1021.27 1021.06 1020.75 1020.43 1020.23 1019.85 1019.49 1019.08 1018.59 1018.10 1017.61 1017.12 1016.58 1015.94 1015.54 1015.02 1014.57 1014.12 1013.71 1013.19 1012.76 1012.29 1011.69 1011.15
1021.90 1022.09 1022.35 1022.60 1022.67 1022.75 1022.86 1022.94 1022.94 1022.85 1022.75 1022.66 1022.53 1022.37 1022.15 1022.08 1021.86 1021.58 1021.36 1021.21 1020.99 1020.73 1020.36 1020.07 1019.66 1019.29 1018.82 1018.33 1017.83 1017.34 1016.84 1016.32 1015.79 1015.29 1014.73 1014.23 1013.75 1013.37 1012.94 1012.48 1012.02 1011.56 1011.03
1021.90 1022.13 1022.28 1022.53 1022.65 1022.72 1022.78 1022.81 1022.74 1022.70 1022.61 1022.54 1022.46 1022.24 1021.77 1021.76 1021.76 1021.57 1021.37 1021.16 1020.87 1020.58 1020.23 1019.89 1019.46 1018.96 1018.49 1018.05 1017.60 1017.13 1016.65 1016.12 1015.59 1015.04 1014.46 1013.89 1013.39 1013.02 1012.59 1012.18 1011.76 1011.31 1011.03
1021.82 1022.09 1022.28 1022.44 1022.46 1022.51 1022.47 1022.55 1022.57 1022.48 1022.41 1022.30 1022.17 1022.09 1021.86 1021.78 1021.63 1021.48 1021.26 1021.01 1020.71 1020.41 1020.06 1019.68 1019.18 1018.67 1018.24 1017.83 1017.36 1016.89 1016.38 1015.82 1015.26 1014.74 1014.22 1013.72 1013.25 1012.77 1012.35 1012.08 1011.79 1011.54 1011.39
1021.78 1021.99 1022.12 1022.22 1022.29 1022.23 1022.21 1022.22 1022.24 1022.26 1022.22 1022.14 1021.98 1021.86 1021.82 1021.71 1021.52 1021.30 1021.07 1020.82 1020.54 1020.16 1019.77 1019.39 1018.95 1018.40 1017.91 1017.49 1017.06 1016.63 1016.09 1015.53 1015.11 1014.71 1014.22 1013.72 1013.28 1012.86 1012.59 1012.39 1012.11 1011.90 1011.73
1021.53 1021.76 1022.05 1022.07 1022.15 1022.17 1022.12 1022.15 1022.11 1021.96 1021.97 1021.95 1021.87 1021.73 1021.68 1021.58 1021.38 1021.17 1020.98 1020.69 1020.33 1019.90 1019.51 1019.12 1018.65 1018.20 1017.71 1017.20 1016.70 1016.28 1015.85 1015.35 1015.02 1014.65 1014.27 1013.83 1013.44 1013.11 1012.84 1012.67 1012.47 1012.27 1012.15
1021.30 1021.50 1021.66 1021.95 1022.16 1022.15 1022.04 1021.97 1021.91 1021.93 1021.75 1021.75 1021.71 1021.60 1021.50 1021.36 1021.22 1020.99 1020.73 1020.41 1020.04 1019.65 1019.31 1018.85 1018.35 1017.94 1017.50 1017.00 1016.43 1016.03 1015.56 1015.00 1014.62 1014.37 1014.36 1013.86 1013.67 1013.28 1012.99 1012.77 1012.73 1012.53 1012.40
1021.00 1021.06 1021.20 1021.52 1021.82 1021.84 1021.71 1021.62 1021.60 1021.66 1021.55 1021.46 1021.43 1021.36 1021.24 1021.12 1020.99 1020.79 1020.53 1020.20 1019.86 1019.51 1019.04 1018.47 1018.06 1017.66 1017.29 1016.77 1016.28 1015.68 1015.12 1014.68 1014.41 1014.13 1014.16 1014.26 1013.91 1013.54 1013.16 1013.01 1012.99 1012.82 1012.71
Thickness
5603 5600 5597 5594 5593 5587 5583 5577 5573 5568 5563 5557 5550 5544 5537 5531 5524 5516 5508 5502 5494 5485 5476 5469 5461 5452 5444 5434 5423 5411 5400 5383 5378 5406 5383 5380 5372 5365 5365 5362 5362 5361 5360
5593 5589 5586 5586 5583 5578 5572 5568 5564 5558 5553 5546 5540 5534 5526 5518 5511 5504 5496 5489 5479 5470 5461 5452 5444 5437 5427 5416 5405 5395 5384 5373 5357 5361 5374 5359 5352 5346 5347 5343 5342 5341 5342
5583 5582 5580 5577 5572 5568 5563 5558 5554 5549 5541 5535 5529 5522 5514 5506 5499 5491 5484 5474 5465 5455 5447 5438 5428 5419 5409 5399 5387 5376 5365 5356 5342 5332 5344 5338 5335 5329 5326 5324 5322 5322 5319
5577 5574 5571 5567 5563 5558 5554 5548 5543 5537 5531 5523 5516 5509 5501 5493 5485 5477 5468 5458 5449 5441 5431 5421 5411 5401 5391 5381 5370 5357 5349 5338 5328 5318 5315 5315 5310 5310 5299 5298 5298 5299 5298
5566 5565 5561 5558 5554 5549 5542 5537 5531 5526 5518 5510 5503 5495 5488 5480 5471 5460 5451 5441 5432 5423 5413 5404 5394 5384 5372 5360 5350 5339 5327 5318 5310 5303 5297 5291 5291 5287 5281 5282 5278 5277 5278
5557 5554 5552 5547 5543 5537 5531 5526 5518 5512 5504 5497 5489 5482 5473 5465 5455 5446 5437 5425 5414 5405 5396 5387 5376 5366 5354 5343 5333 5322 5311 5300 5294 5283 5281 5275 5278 5269 5265 5261 5256 5251 5253
5547 5545 5541 5536 5531 5525 5520 5512 5506 5497 5489 5481 5474 5466 5456 5447 5441 5431 5420 5408 5398 5387 5377 5368 5358 5348 5337 5328 5319 5310 5299 5286 5275 5272 5270 5266 5263 5258 5251 5247 5239 5231 5232
5536 5533 5529 5525 5519 5513 5507 5499 5491 5482 5474 5467 5458 5450 5441 5432 5424 5414 5404 5392 5381 5371 5359 5347 5337 5330 5320 5312 5307 5297 5286 5278 5271 5265 5259 5256 5251 5248 5241 5235 5230 5225 5225
5525 5522 5518 5513 5506 5499 5491 5481 5474 5467 5458 5450 5444 5435 5425 5415 5408 5399 5388 5375 5363 5353 5342 5329 5319 5311 5303 5297 5289 5281 5276 5270 5264 5257 5252 5247 5243 5239 5236 5232 5227 5222 5225
5514 5510 5505 5500 5492 5483 5474 5467 5460 5452 5445 5439 5429 5420 5412 5402 5393 5383 5371 5357 5346 5338 5327 5314 5302 5294 5288 5279 5271 5266 5263 5259 5255 5251 5246 5240 5234 5229 5227 5224 5222 5220 5223
5501 5496 5490 5483 5475 5468 5461 5453 5446 5441 5432 5423 5414 5405 5396 5388 5377 5365 5352 5340 5330 5324 5314 5303 5292 5282 5276 5267 5262 5256 5250 5248 5243 5238 5235 5231 5226 5224 5221 5218 5215 5212 5213
5487 5480 5473 5467 5462 5454 5447 5442 5435 5425 5415 5405 5397 5388 5380 5369 5357 5345 5335 5324 5314 5306 5298 5289 5280 5272 5265 5259 5254 5247 5241 5235 5231 5228 5227 5223 5218 5216 5214 5211 5209 5209 5208
5473 5466 5460 5453 5447 5441 5434 5426 5417 5408 5398 5389 5381 5370 5359 5348 5338 5329 5320 5309 5298 5291 5282 5275 5269 5261 5256 5249 5241 5235 5230 5224 5221 5221 5221 5219 5216 5213 5211 5209 5207 5206 5206
5461 5453 5447 5441 5436 5428 5419 5410 5400 5391 5382 5373 5363 5351 5341 5331 5322 5313 5306 5296 5288 5280 5273 5264 5257 5251 5245 5237 5230 5224 5220 5219 5218 5216 5216 5215 5215 5213 5211 5210 5208 5207 5206
5447 5442 5435 5429 5420 5413 5406 5397 5388 5379 5369 5357 5347 5336 5326 5315 5308 5300 5290 5283 5276 5269 5265 5254 5247 5241 5236 5229 5223 5219 5217 5216 5214 5213 5212 5212 5212 5212 5212 5211 5209 5210 5209
5435 5428 5420 5413 5407 5399 5390 5381 5375 5367 5356 5346 5336 5326 5316 5304 5295 5287 5277 5270 5264 5259 5250 5242 5238 5233 5228 5224 5220 5218 5217 5216 5215 5213 5212 5211 5211 5212 5213 5213 5213 5214 5215
5421 5414 5407 5400 5392 5384 5375 5367 5357 5348 5339 5330 5319 5309 5300 5290 5281 5273 5267 5260 5253 5248 5238 5234 5230 5227 5223 5220 5218 5217 5217 5217 5217 5216 5215 5215 5215 5216 5217 5217 5218 5219 5221
5407 5402 5393 5385 5378 5370 5362 5354 5344 5333 5321 5312 5302 5292 5285 5276 5269 5263 5259 5251 5242 5237 5233 5229 5225 5223 5221 5220 5219 5219 5220 5220 5220 5220 5220 5220 5220 5221 5222 5223 5223 5224 5226
5394 5386 5380 5373 5365 5358 5349 5339 5329 5318 5308 5298 5290 5279 5271 5264 5259 5253 5248 5239 5235 5232 5229 5224 5221 5220 5220 5221 5221 5222 5222 5223 5225 5224 5225 5226 5226 5226 5227 5227 5227 5231 5233
5381 5375 5367 5359 5352 5343 5334 5324 5315 5306 5296 5285 5277 5271 5264 5256 5250 5244 5238 5233 5229 5226 5224 5220 5220 5220 5220 5222 5223 5223 5224 5226 5226 5227 5228 5229 5229 5228 5228 5228 5229 5230 5233
5368 5360 5354 5345 5336 5327 5318 5309 5301 5291 5283 5273 5266 5260 5257 5250 5241 5236 5231 5227 5225 5222 5219 5218 5219 5220 5221 5222 5224 5225 5225 5226 5227 5228 5228 5229 5228 5228 5227 5227 5228 5230 5230
5355 5347 5339 5330 5321 5312 5303 5295 5286 5280 5272 5264 5257 5250 5246 5240 5234 5228 5225 5223 5220 5218 5217 5216 5218 5220 5221 5223 5224 5225 5226 5227 5228 5228 5228 5228 5227 5227 5227 5226 5226 5224 5223
5340 5332 5324 5315 5306 5299 5289 5283 5275 5267 5260 5253 5248 5244 5238 5231 5227 5223 5221 5218 5216 5215 5215 5216 5218 5220 5222 5223 5224 5225 5226 5227 5226 5226 5225 5225 5225 5225 5224 5223 5221 5219 5218
5325 5317 5308 5301 5292 5283 5275 5269 5263 5257 5251 5245 5240 5236 5230 5225 5221 5219 5216 5214 5213 5213 5214 5215 5216 5219 5221 5223 5224 5225 5225 5225 5224 5224 5223 5223 5222 5221 5220 5220 5216 5216 5210
5311 5303 5295 5284 5276 5268 5262 5256 5252 5246 5242 5238 5234 5229 5224 5220 5217 5215 5214 5212 5212 5212 5213 5214 5216 5217 5219 5221 5223 5224 5224 5225 5224 5223 5221 5220 5220 5219 5218 5216 5214 5214 5211
5296 5291 5283 5272 5263 5257 5253 5248 5243 5239 5236 5232 5227 5223 5219 5216 5214 5212 5211 5210 5211 5211 5213 5214 5216 5216 5218 5219 5221 5223 5224 5225 5224 5223 5220 5218 5214 5214 5214 5212 5209 5210 5207